Simultaneous Nadir Overpasses (SNOs) Predictions

Prediction of SNOs between AQUA and NOAA-19 Satellite Orbit:

Table of predicted SNOs for the next 14.0 days since TLE Epoch: 2/8/2013
Index Date (AQUA) Time (AQUA) Lat,Lon (AQUA) SZA (AQUA ) Date (NOAA-19) Time (NOAA-19) Lat,Lon (NOAA-19) SZA (NOAA-19 ) Distance(km) Time Diff (sec)
1 02/09/2013 10:14:34 48.63, 40.86 63.76 02/09/2013 10:13:50 48.54, 40.31 63.58 41.54 44
2 02/09/2013 11:03:14 -46.10,-150.51 118.61 02/09/2013 11:04:01 -45.94,-151.35 118.86 67.21 47
3 02/11/2013 14:58:38 47.98, -29.95 62.45 02/11/2013 14:58:05 47.91, -30.52 62.28 43.63 33
4 02/11/2013 15:47:30 -46.10, 138.43 119.31 02/11/2013 15:48:29 -45.96, 137.54 119.55 70.39 59
5 02/13/2013 19:16:49 -46.02, -76.74 40.85 02/13/2013 19:15:40 -45.84, -75.77 41.08 77.97 69
6 02/13/2013 19:42:42 47.32,-100.75 61.10 02/13/2013 19:42:20 47.21,-101.33 60.90 45.76 22
7 02/13/2013 20:31:45 -46.09, 67.37 120.05 02/13/2013 20:32:56 -45.92, 66.45 120.31 73.67 71
8 02/16/2013 00:01:03 -46.06,-147.79 41.54 02/16/2013 00:00:07 -45.87,-146.86 41.76 74.50 56
9 02/16/2013 00:26:45 46.63,-171.54 59.73 02/16/2013 00:26:35 46.52,-172.15 59.52 48.28 10
10 02/18/2013 04:30:17 -76.39, -80.08 91.60 02/18/2013 04:29:04 -76.03, -82.03 91.78 65.30 73
11 02/18/2013 05:33:56 48.67, -50.17 135.50 02/18/2013 05:34:41 48.58, -49.57 135.20 45.98 45
12 02/20/2013 09:07:31 -53.01,-123.98 115.84 02/20/2013 09:06:18 -52.94,-124.51 115.99 36.48 73
13 02/20/2013 10:17:55 49.51,-120.88 134.05 02/20/2013 10:18:54 49.41,-120.31 133.75 43.29 59
14 02/22/2013 13:50:45 -49.57, 166.51 119.84 02/22/2013 13:49:45 -49.49, 166.04 120.01 35.06 60




NCC Satellite Simultaneous Nadir Overpasses (SNOs) Prediction Service
